Location: Newark
(45.8667°N, 9.7333°E)
Time: 14:57:15
(UTC+00:00)

Transit 4A - Pass Details

Date: 29 January 2020
Orbit: 872 x 973 km, 66.8° (Epoch: 22 February)

Event Time Altitude Azimuth Distance (km) Brightness Sun altitude
Rises 15:42:11 0° 307° (NW) 3,469 11.2 5.1°
Reaches altitude 10° 15:47:22 10° 268° (W) 2,532 11.4 4.4°
Maximum altitude 15:48:11 10° 260° (W) 2,512 11.7 4.3°
Drops below altitude 10° 15:49:01 10° 251° (WSW) 2,535 12.2 4.1°
Sets 15:54:15 0° 212° (SSW) 3,487 12.2 3.4°
